Powrót do katalogu

CZ-4B DEB

AktywnyLEO
NORAD 48622·DEBRIS·🇨🇳 China

Wystrzelony May 19, 2021 z Jiuquan Satellite Launch Center

Loading…

Następne Przeloty (najbliższe 24 godziny)

TLE

ŚwieżeSource: Space-Track

Epoka: Sep 14, 2026, 08:48 UTC

1 48622U 21043B   26257.36717999  .00000015  00000-0  82169-4 0  9991
2 48622  65.9002  33.2263 0024164 175.1738 184.9570 13.87591899269656

Śledź CZ-4B DEB w czasie rzeczywistym z AllMySat

Download on the App Store